sat.trackr.live / text

‹ back to catalog

STARLINK-35797

NORAD 66364 · 2025-254S

PAYLOAD ACTIVE UNKNOWN

§ Identity

Operator
Country
US
Launch date
2025-11-06
Launch site
AFWTR
Launch vehicle
Mass (kg)
RCS (m²)

Purposes: comms

External: N2YO · Heavens-Above · Gunter

§ Orbital elements

Epoch: 2026-09-20T20:56:35.490336Z

Period
93.85 min
Inclination
53.1599°
Eccentricity
0.0000990
Mean motion
15.34418315 rev/d
Perigee alt
462.0 km
Apogee alt
463.3 km
Semi-major
6,840.8 km
B*
7.1172e-4
RAAN
44.1058°
Arg perigee
46.1123°
Mean anomaly
313.9961°
Rev number
4,888

§ Raw data

STARLINK-357971 66364U 25254S   26263.87263299  .00023761  00000+0  71172-3 0  99972 66364  53.1599  44.1058 0000990  46.1123 313.9961 15.34418315 48881

JSON: /api/v1/satellites/66364 · /tle

For live sub-satellite position, see the globe view (requires WebGL).

§ Visibility from observer

Set your observer location to see the next 7 days of passes ≥ 10°. The values pass through the URL so the page stays shareable.

No JS? Fill the form by hand. The geolocation button needs JavaScript.